Flag for Norway Weather past 2 weeks in Stange, Norway

Now
38 °F

Chilly.


Feels Like: 38 °F
Forecast: 36 / 46 °F
Wind: 1 mph from South

Location: Haugedalshogda

Current Time: Oct 22, 2014 at 10:50:46 AM

Latest Report: Oct 22, 2014 at 10:00 AM


Visibility: N/A

Pressure: 29.96 "Hg

Humidity: 94%

Dew point: 36 °F

Location of StangeLocation

Historic Weather in Stange — Graph

°F

Stange temperature yesterday

Maximum temperature yesterday: 45 °F (at 12:00 AM)
Minimum temperature yesterday: 39 °F (at 11:00 PM)
Average temperature yesterday: 42 °F

Past Weeks' High & Low Weather Summary

 TemperatureHumidityPressure
High54 °F (Oct 11, 2:00 PM)96% (Oct 10, 3:00 AM)30.31 "Hg (Oct 10, 3:00 AM)
Low26 °F (Oct 17, 12:00 AM)63% (Oct 11, 2:00 PM)29.29 "Hg (Oct 20, 1:00 AM)
Average41 °F91%29.82 "Hg
* Reported Oct 7 9:00 AM — Oct 22 9:00 AM, Stange, Weather by CustomWeather, © 2014

Note: Actual official high and low records may vary slightly from our data, if they occured in-between our weather recording intervals... More about our weather records

Advertising

Stange weather history for previous 24 hours

 ConditionsComfort  
Time TempWeatherWind HumidityBarometerVisibility
9:00 AM
Oct 22
37 °FChilly.No wind95%29.93 "HgN/A
8:00 AM38 °FChilly.1 mph94%29.90 "HgN/A
7:00 AM38 °FChilly.1 mph94%29.87 "HgN/A
6:00 AM38 °FChilly.2 mph94%29.84 "HgN/A
5:00 AM38 °FChilly.2 mph94%29.82 "HgN/A
4:00 AM38 °FChilly.1 mph94%29.80 "HgN/A
3:00 AM38 °FChilly.2 mph93%29.78 "HgN/A
2:00 AM38 °FChilly.1 mph92%29.76 "HgN/A
1:00 AM38 °FChilly.1 mph92%29.73 "HgN/A
12:00 AM39 °FChilly.2 mph93%29.71 "HgN/A
11:00 PM
Oct 21
39 °FChilly.2 mph93%29.69 "HgN/A
10:00 PM40 °FChilly.2 mph93%29.67 "HgN/A
9:00 PM40 °FChilly.2 mph93%29.65 "HgN/A
8:00 PM40 °FChilly.2 mph92%29.64 "HgN/A
7:00 PM40 °FQuite cool.2 mph89%29.62 "HgN/A
6:00 PM41 °FQuite cool.2 mph91%29.62 "HgN/A
5:00 PM41 °FQuite cool.3 mph90%29.60 "HgN/A
4:00 PM41 °FQuite cool.2 mph91%29.60 "HgN/A
3:00 PM41 °FQuite cool.3 mph91%29.61 "HgN/A
2:00 PM41 °FQuite cool.1 mph93%29.61 "HgN/A
1:00 PM41 °FQuite cool.2 mph93%29.61 "HgN/A
12:00 PM41 °FQuite cool.2 mph92%29.62 "HgN/A
11:00 AM41 °FQuite cool.2 mph92%29.61 "HgN/A
10:00 AM41 °FQuite cool.3 mph93%29.61 "HgN/A
Weather by CustomWeather, © 2014

See weather overviewHow to use our weather pages